Lid_Strength_Index
5 1 0 0 0 -0 -1 -1 -1 -1 -2 -1 -1 -1 -1 -2 -1 -1 -1 -1 -1 -1 -1 -2 -1 -1 -1 -1 -1 -1 -1 -1 -1 -1 -1 -1 -1 -1 -1 -0 -1 -1 -1
4 1 1 -0 -0 1 0 0 -1 -1 -1 -1 -1 -0 -1 -1 -1 -1 -1 -1 -1 -2 -2 -2 -1 -1 -1 -1 -1 -1 -1 -1 -1 -1 -1 -1 -1 -1 -1 -0 -1 -1 -1
4 2 2 1 1 1 1 1 1 0 -0 -0 0 0 0 -0 -0 -1 -1 -1 -1 -1 -2 -2 -2 -2 -1 -1 -1 -1 -1 -1 -1 -1 -1 -1 -1 -1 -1 -1 -1 -1 -1
4 3 2 2 2 2 2 1 1 1 1 1 1 1 1 1 1 0 0 -0 -1 -1 -2 -2 -2 -2 -1 -1 -1 -1 -1 -1 -1 -1 -1 -1 -1 -1 -1 -1 -1 -1 -1
5 3 3 2 3 2 2 1 1 1 1 1 1 1 1 1 1 1 0 1 1 0 0 0 -0 -1 -1 -1 -1 -1 -1 -1 -1 -1 -1 -1 -1 -1 -1 -2 -2 -2 -2
5 4 3 3 3 3 3 2 2 2 2 2 2 3 2 3 3 3 2 2 1 1 1 1 1 1 1 -1 -1 -1 -1 -1 -1 -1 -1 -1 -1 -1 -2 -2 -1 -2 -2
6 5 4 5 4 4 4 3 4 4 4 4 4 4 4 4 4 4 3 3 2 2 2 2 2 1 1 -1 -1 -1 -1 -1 -1 -1 -1 -1 -1 -2 -1 -1 -1 -1 -1
6 6 6 7 6 6 5 5 5 5 6 6 6 6 6 6 5 5 5 4 4 4 4 4 3 2 0 1 1 1 1 1 -0 -1 -1 -1 -1 -1 -1 -2 -2 -2 -2
7 7 8 8 8 8 7 7 7 7 7 8 8 8 8 8 7 7 6 6 5 4 4 4 2 1 1 2 2 3 2 1 1 -0 -0 -1 -1 -2 -2 -2 -1 -1 -1
8 8 9 9 10 9 9 9 9 9 9 10 10 10 10 10 9 9 8 7 6 5 4 4 3 3 3 3 3 3 2 2 2 1 0 -1 -1 -1 -1 -1 -1 -0 0
9 9 9 9 10 10 11 11 11 11 11 11 11 11 10 10 10 10 9 7 6 5 5 5 5 5 4 4 5 4 4 3 4 3 1 -0 -0 -1 -0 0 0 0 0
9 9 9 9 10 10 11 10 10 10 10 10 10 10 10 10 11 11 10 9 8 7 6 5 5 5 4 4 7 6 6 6 5 5 3 0 0 0 0 1 1 1 1
9 9 9 9 9 10 11 11 11 10 10 10 10 10 10 10 10 9 8 8 7 6 6 6 5 5 4 4 7 7 7 7 7 6 5 1 0 0 1 1 2 2 2
10 9 9 10 10 10 10 10 10 10 10 10 10 10 9 9 9 9 8 7 6 5 5 5 5 4 4 4 5 6 6 6 6 6 5 3 1 -0 0 1 1 2 2
10 10 10 10 11 11 11 11 10 10 10 9 9 9 8 8 8 8 7 6 6 5 5 5 5 5 5 5 5 6 6 6 6 5 5 3 2 1 -0 -1 -0 1 1
10 10 10 11 11 11 11 11 10 10 9 9 9 9 9 9 8 7 6 6 6 6 6 6 6 6 6 7 7 8 9 9 8 7 6 5 3 2 1 0 -0 -0 0
10 11 11 11 11 11 11 11 10 10 10 10 10 10 9 9 8 7 7 7 6 6 7 7 8 8 8 9 9 10 10 10 10 10 9 8 6 4 3 2 1 1 1
11 12 11 12 11 12 11 10 10 10 10 10 10 9 10 10 9 7 7 7 7 7 7 8 8 9 9 9 10 10 10 10 10 10 10 9 8 6 5 3 3 2 2
11 11 12 12 12 11 10 10 10 10 10 10 10 10 10 10 9 7 7 7 7 7 7 8 8 8 9 9 9 9 9 9 9 9 9 9 9 9 8 7 6 4 3
11 11 12 11 11 11 10 10 10 10 10 10 10 10 10 10 9 8 7 7 7 7 8 8 9 9 9 9 9 9 9 8 8 8 9 9 9 9 9 8 8 8 6
11 11 11 11 11 11 11 11 11 11 10 10 10 10 10 10 9 8 7 7 6 7 8 8 8 9 9 8 9 9 9 9 9 9 8 9 9 9 9 9 8 8 8
11 11 11 11 11 11 10 10 10 10 10 10 10 10 10 10 10 9 8 7 7 8 8 8 8 8 8 8 8 8 10 10 10 9 9 9 9 9 9 9 9 9 8
12 11 12 11 11 11 10 10 10 10 11 11 11 11 10 10 10 10 9 8 7 7 8 8 7 8 9 9 8 9 10 10 10 10 10 10 9 9 9 9 9 9 9
11 11 11 11 11 11 10 11 11 12 12 11 11 11 11 10 10 10 10 9 8 8 8 9 9 8 8 10 10 10 9 9 10 12 10 10 10 10 9 9 9 9 9
10 11 11 11 11 11 11 11 11 10 10 10 11 11 11 11 10 10 10 10 10 10 9 9 9 9 8 9 9 10 10 10 9 10 11 11 10 9 9 9 8 8 9
10 10 11 11 11 11 11 11 11 10 11 11 11 11 11 11 11 10 10 10 10 10 10 10 9 9 9 9 9 9 10 10 11 11 11 10 11 9 9 9 9 8 8